[[{"header":{"parameterUnit":"m.s-1","parameterCategory":1,"la1":30.2991,"la2":30.254,"lo1":-89.0895,"lo2":-89.0444,"dy":0.0017,"dx":0.0017,"nx":28,"ny":28,"refTime":"2024-08-25T03:00:00:Z","depth":0,"parameterNumber":2,"parameterNumberName":"U-component_of_WINDS"},"data":[0,0,0,0,0,0,0,0,0,0,0,0,0,0,0,0,0,0,0,0,0,0,0,0,0,0,0,0,0,0,0,0,0,0,0,0,0,0,0,0,0,0,0,0,0,0,0,0,0,0,0,0,0,0,0,0,0,0,-3.6907,-3.6907,0,-3.6886,-3.6886,-3.6886,-3.6756,-3.6753,-3.675,-3.6747,-3.6729,-3.6731,-3.6734,0,0,0,0,0,0,0,0,0,0,0,0,0,-3.6842,-3.6844,-3.6907,-3.6907,-3.6907,-3.6886,-3.6886,-3.6885,-3.6757,-3.6753,-3.6749,-3.6746,-3.6728,-3.6731,-3.6734,0,0,0,0,0,0,0,0,0,0,0,0,0,-3.6851,-3.6844,-3.6907,-3.684,-3.6834,-3.6886,-3.6886,-3.6885,-3.6758,-3.6753,-3.6748,-3.6744,-3.6727,-3.6731,-3.6734,-3.6851,0,0,-3.6746,-3.6747,0,0,0,0,0,0,0,0,-3.685,-3.6853,-3.685,-3.6845,-3.6838,-3.6819,-3.6856,-3.6874,-3.6759,-3.6787,-3.6747,-3.6742,-3.6763,-3.6763,-3.677,-3.685,-3.6849,-3.6746,-3.6748,-3.675,-3.6751,0,0,0,0,0,0,0,-3.685,-3.6853,-3.6899,-3.685,-3.6843,-3.6813,-3.6809,-3.6859,-3.6802,-3.6784,-3.6774,-3.6774,-3.6759,-3.6767,-3.6769,-3.6849,-3.6746,-3.6749,-3.6751,-3.6753,-3.7028,-3.7033,0,0,0,0,0,0,-3.6858,-3.6854,-3.6899,-3.6898,-3.6832,-3.6818,-3.6813,-3.683,-3.6801,-3.6792,-3.6778,-3.6768,-3.6763,-3.6764,-3.6767,-3.6903,-3.675,-3.6753,-3.6755,-3.7023,-3.7029,-3.7034,0,0,0,0,0,0,-3.6857,-3.6863,-3.69,-3.6873,-3.6876,-3.6824,-3.6843,-3.6832,-3.6839,-3.6796,-3.6785,-3.6796,-3.6759,-3.6762,-3.6832,-3.6901,-3.6755,-3.6758,-3.7017,-3.7025,-3.7032,-3.7176,0,0,0,0,0,0,-3.6856,-3.6864,-3.6906,-3.6875,-3.6878,-3.6964,-3.6848,-3.6835,-3.6846,-3.6832,-3.681,-3.6802,-3.6756,-3.6827,-3.6835,-3.6903,-3.6761,-3.701,-3.702,-3.7029,-3.7165,-3.7187,-3.7207,0,0,0,0,0,-3.6854,-3.6947,-3.6908,-3.6915,-3.6929,-3.6968,-3.6969,-3.6913,-3.6852,-3.6895,-3.6867,-3.6803,-3.6893,-3.6835,-3.6844,-3.6914,-3.7006,-3.7017,-3.7029,-3.7155,-3.7183,-3.7207,0,0,0,0,0,0,-3.6987,-3.6942,-3.6898,-3.6984,-3.6981,-3.6946,-3.6998,-3.6944,-3.6958,-3.6945,-3.6876,-3.6873,-3.6953,-3.694,-3.6877,-3.7027,-3.6938,-3.6952,-3.7032,-3.7058,-3.7079,-3.708,-3.6764,0,0,0,0,0,-3.7027,-3.706,-3.7019,-3.71,-3.71,-3.705,-3.7065,-3.7022,-3.7016,-3.7014,-3.6991,-3.699,-3.7017,-3.7037,-3.706,-3.7163,-3.7158,-3.7216,-3.7237,-3.7255,-3.7267,-3.7323,-3.7349,-3.7072,-3.7072,-3.7072,0,0,-3.7108,-3.7088,-3.7113,-3.7126,-3.7118,-3.7157,-3.7049,-3.7094,-3.7122,-3.7021,-3.7085,-3.707,-3.7063,-3.715,-3.7188,-3.7142,-3.7343,-3.7269,-3.7284,-3.7286,-3.7338,-3.7364,-3.7388,-3.708,-3.7079,-3.7077,0,0,-3.7276,-3.7264,-3.733,-3.7325,-3.7315,-3.7282,-3.7298,-3.7272,-3.7257,-3.7321,-3.7247,-3.7281,-3.733,-3.7329,-3.7335,-3.7508,-3.745,-3.7518,-3.7628,-3.7684,-3.7706,-3.7725,-3.7788,-3.7811,-3.7531,-3.7531,-3.7532,0,-3.7379,-3.7432,-3.7371,-3.7421,-3.743,-3.7341,-3.7409,-3.7408,-3.7407,-3.7416,-3.7365,-3.7426,-3.7416,-3.7503,-3.7546,-3.7553,-3.7571,-3.7519,-3.7707,-3.7726,-3.7743,-3.7802,-3.7826,-3.754,-3.7539,-3.7538,-3.7537,0,-3.756,-3.7599,-3.7654,-3.7655,-3.767,-3.7729,-3.7679,-3.7703,-3.766,-3.7634,-3.7701,-3.7686,-3.7706,-3.7724,-3.7682,-3.7806,-3.7779,-3.7719,-3.7628,-3.7778,-3.7833,-3.7855,-3.7552,-3.7549,-3.7546,-3.7544,0,0,-3.7808,-3.7777,-3.7798,-3.7799,-3.7783,-3.7813,-3.787,-3.7889,-3.7911,-3.7915,-3.7962,-3.8008,-3.7953,-3.796,-3.7919,-3.7968,-3.8109,-3.7902,-3.7901,-3.7942,-3.8247,-3.8291,-3.8318,-3.8071,-3.8075,-3.8078,-3.8247,0,-3.797,-3.8063,-3.8011,-3.8112,-3.8149,-3.8067,-3.8117,-3.8115,-3.8092,-3.8122,-3.8098,-3.8131,-3.8056,-3.8061,-3.8106,-3.8082,-3.8169,-3.8069,-3.8115,-3.8118,-3.8118,-3.8346,-3.8393,-3.8553,-3.8268,-3.8272,-3.8274,0,-3.8169,-3.8182,-3.8287,-3.8267,-3.8281,-3.8326,-3.8341,-3.8369,-3.8367,-3.8347,-3.8358,-3.8306,-3.8363,-3.8275,-3.8354,-3.8287,-3.8304,-3.8296,-3.8301,-3.8302,-3.8204,-3.8354,-3.8603,-3.8627,-3.8307,-3.8305,-3.8302,0,-3.8341,-3.8384,-3.8453,-3.8456,-3.8435,-3.8469,-3.8462,-3.8454,-3.847,-3.8484,-3.8494,-3.8516,-3.8527,-3.8546,-3.8503,-3.8442,-3.8589,-3.8496,-3.8576,-3.8577,-3.8609,-3.8607,-3.8863,-3.8621,-3.8621,-3.862,-3.862,0,-3.8526,-3.8594,-3.853,-3.8572,-3.8647,-3.8589,-3.8665,-3.8649,-3.8644,-3.8684,-3.8616,-3.8655,-3.8595,-3.863,-3.8596,-3.8668,-3.8674,-3.8661,-3.8652,-3.8667,-3.8669,-3.8676,-3.8664,-3.8626,-3.8625,-3.8624,-3.8623,0,-3.8729,-3.8689,-3.8758,-3.8734,-3.8729,-3.8786,-3.8765,-3.8805,-3.8779,-3.8831,-3.884,-3.88,-3.8838,-3.8797,-3.8831,-3.8809,-3.8906,-3.888,-3.8906,-3.8899,-3.8981,-3.8974,-3.925,-3.9284,-3.902,-3.9023,-3.9025,0,-3.8849,-3.8899,-3.8881,-3.8902,-3.8899,-3.8935,-3.8951,-3.8898,-3.8918,-3.8921,-3.8961,-3.8992,-3.9014,-3.9078,-3.9054,-3.908,-3.9055,-3.915,-3.9058,-3.9073,-3.9057,-3.9054,-3.906,-3.9168,-3.9171,-3.9174,-3.9176,0,-3.9068,-3.9046,-3.9071,-3.9091,-3.9113,-3.9126,-3.9134,-3.9156,-3.9101,-3.9128,-3.9165,-3.9182,-3.9218,-3.9251,-3.9271,-3.9266,-3.9214,-3.9206,-3.9225,-3.9241,-3.9255,-3.9249,-3.8957,-3.9199,-3.9196,-3.9195,-3.9194,-3.9193,-3.9233,-3.9275,-3.9269,-3.93,-3.9301,-3.9311,-3.9348,-3.9328,-3.9357,-3.9381,-3.9349,-3.9396,-3.9396,-3.9417,-3.9419,-3.9457,-3.9416,-3.9445,-3.9452,-3.946,-3.9472,-3.925,-3.946,-3.946,-3.9459,-3.9458,-3.9458,0,-3.9448,-3.9441,-3.9471,-3.9485,-3.9511,-3.9458,-3.9466,-3.9491,-3.9533,-3.9537,-3.956,-3.9605,-3.9638,-3.9618,-3.9646,-3.968,-3.9657,-3.969,-3.9686,-3.9686,-3.9506,-3.9486,-3.9708,-3.9708,-3.9708,-3.9708,-3.9708,-3.9708,-3.9563,-3.9631,-3.961,-3.968,-3.9673,-3.9717,-3.9726,-3.9736,-3.9739,-3.9792,-3.9818,-3.9805,-3.98,-3.9828,-3.9857,-3.9851,-3.9865,-3.9906,-3.9891,-3.9723,-3.9699,-3.9675,-3.9656,-3.991,-3.991,-4.0068,-4.0069,-4.0071]},{"header":{"parameterUnit":"m.s-1","parameterCategory":1,"la1":30.2991,"la2":30.254,"lo1":-89.0895,"lo2":-89.0444,"dy":0.0017,"dx":0.0017,"nx":28,"ny":28,"refTime":"2024-08-25T03:00:00:Z","depth":0,"parameterNumber":3,"parameterNumberName":"V-component_of_WINDS"},"data":[0,0,0,0,0,0,0,0,0,0,0,0,0,0,0,0,0,0,0,0,0,0,0,0,0,0,0,0,0,0,0,0,0,0,0,0,0,0,0,0,0,0,0,0,0,0,0,0,0,0,0,0,0,0,0,0,0,0,2.711,2.7111,0,2.7186,2.7187,2.7188,2.726,2.7261,2.7262,2.7263,2.7335,2.7336,2.7337,0,0,0,0,0,0,0,0,0,0,0,0,0,2.7023,2.7024,2.711,2.7111,2.7112,2.7186,2.7187,2.7188,2.726,2.7261,2.7262,2.7263,2.7335,2.7336,2.7337,0,0,0,0,0,0,0,0,0,0,0,0,0,2.7076,2.7024,2.711,2.7157,2.7162,2.7186,2.7187,2.7188,2.7259,2.7261,2.7262,2.7264,2.7334,2.7336,2.7338,2.732,0,0,2.7342,2.7343,0,0,0,0,0,0,0,0,2.7073,2.7079,2.7149,2.7154,2.7159,2.7215,2.7183,2.7232,2.7259,2.7222,2.7263,2.7264,2.7294,2.7299,2.731,2.7323,2.7326,2.7343,2.7344,2.7344,2.7345,0,0,0,0,0,0,0,2.7069,2.7076,2.714,2.715,2.7156,2.7173,2.7182,2.7193,2.7249,2.7225,2.7231,2.7239,2.7297,2.7308,2.7312,2.7327,2.7343,2.7344,2.7345,2.7346,2.733,2.7329,0,0,0,0,0,0,2.7059,2.7072,2.7138,2.7142,2.7119,2.7173,2.7183,2.7196,2.7249,2.7259,2.7238,2.7242,2.7305,2.731,2.7315,2.7298,2.7344,2.7346,2.7347,2.7332,2.733,2.7329,0,0,0,0,0,0,2.7056,2.7064,2.7135,2.7109,2.7119,2.7173,2.7186,2.7196,2.7208,2.7259,2.7269,2.7239,2.7306,2.7313,2.7319,2.7301,2.7346,2.7348,2.7333,2.7331,2.7329,2.7263,0,0,0,0,0,0,2.7054,2.7063,2.7057,2.7108,2.712,2.7138,2.7185,2.7197,2.7211,2.7217,2.7263,2.7271,2.7308,2.7316,2.732,2.7304,2.7349,2.7335,2.7333,2.733,2.7266,2.7258,2.7252,0,0,0,0,0,2.705,2.7034,2.7056,2.7064,2.7115,2.7137,2.7143,2.7187,2.7209,2.7204,2.7237,2.727,2.7303,2.7316,2.7321,2.7305,2.7336,2.7333,2.733,2.727,2.726,2.7252,0,0,0,0,0,0,2.6977,2.7041,2.7067,2.7067,2.7096,2.7149,2.7143,2.7175,2.7196,2.7201,2.7253,2.7262,2.7262,2.7285,2.7298,2.7291,2.7324,2.7322,2.7276,2.7267,2.726,2.7254,2.7351,0,0,0,0,0,2.6961,2.6975,2.703,2.7025,2.7038,2.7088,2.7099,2.713,2.7162,2.7174,2.7207,2.7235,2.7251,2.7261,2.7279,2.7271,2.7281,2.7263,2.7255,2.7249,2.7246,2.7243,2.7235,2.7319,2.7319,2.7319,0,0,2.6928,2.6965,2.697,2.7011,2.7037,2.7049,2.7098,2.7108,2.7117,2.7175,2.7183,2.7208,2.7242,2.7241,2.7242,2.726,2.7226,2.7245,2.724,2.724,2.7239,2.7231,2.7224,2.7317,2.7317,2.7317,0,0,2.6873,2.6903,2.6902,2.6928,2.6968,2.7001,2.7001,2.705,2.7069,2.7079,2.7123,2.7133,2.7161,2.7184,2.7199,2.7155,2.7186,2.7159,2.7119,2.7116,2.7109,2.7104,2.7087,2.708,2.7157,2.7156,2.7156,0,2.6826,2.6847,2.6897,2.6905,2.6922,2.6977,2.6976,2.6998,2.7041,2.705,2.707,2.7107,2.7134,2.7139,2.7128,2.7139,2.7139,2.7153,2.7107,2.7102,2.7097,2.7081,2.7075,2.7153,2.7153,2.7154,2.7154,0,2.6787,2.6801,2.6795,2.6837,2.6853,2.6856,2.6906,2.6916,2.6946,2.6977,2.6986,2.7021,2.7047,2.7051,2.708,2.706,2.707,2.7097,2.7131,2.7085,2.7071,2.7065,2.7148,2.7149,2.715,2.7151,0,0,2.6686,2.6757,2.6754,2.6774,2.6823,2.6834,2.684,2.6868,2.6875,2.6903,2.6908,2.6931,2.6958,2.6975,2.7007,2.7004,2.6966,2.7033,2.7034,2.7018,2.6946,2.6923,2.6916,2.6989,2.6988,2.6987,2.6942,0,2.6638,2.6653,2.6699,2.6699,2.6712,2.6767,2.6771,2.6801,2.6831,2.6845,2.6878,2.6893,2.6927,2.6938,2.6938,2.6971,2.6952,2.6975,2.6992,2.6992,2.698,2.6909,2.6885,2.6841,2.6938,2.6937,2.6936,0,2.6584,2.661,2.6612,2.6662,2.6669,2.6673,2.6702,2.6716,2.6751,2.6773,2.6793,2.683,2.6838,2.6871,2.6882,2.6896,2.6906,2.6924,2.6923,2.6924,2.696,2.6907,2.6828,2.6821,2.6928,2.6929,2.693,0,2.6508,2.6545,2.6551,2.6566,2.6624,2.6626,2.665,2.6686,2.67,2.6726,2.6735,2.6761,2.6774,2.6792,2.6835,2.6855,2.684,2.6877,2.6857,2.6856,2.685,2.6849,2.677,2.6859,2.6859,2.6859,2.6859,0,2.6449,2.6447,2.6518,2.6521,2.6522,2.6574,2.6573,2.6602,2.6634,2.6643,2.6692,2.6699,2.6755,2.6769,2.6802,2.6806,2.6811,2.6828,2.6836,2.6823,2.682,2.6828,2.6832,2.6858,2.6858,2.6858,2.6859,0,2.6363,2.641,2.6421,2.6476,2.649,2.6487,2.6534,2.6539,2.6573,2.6583,2.6589,2.6641,2.666,2.6705,2.6734,2.6757,2.6751,2.6768,2.6739,2.6744,2.6721,2.6722,2.6643,2.6635,2.673,2.6729,2.6728,0,2.6321,2.6322,2.6378,2.6389,2.6411,2.6428,2.6443,2.6495,2.6509,2.655,2.6549,2.6572,2.6593,2.662,2.6659,2.6683,2.6699,2.667,2.6703,2.6689,2.6697,2.6696,2.6696,2.6662,2.666,2.6659,2.6659,0,2.6242,2.6266,2.6287,2.6316,2.6333,2.6358,2.6386,2.6392,2.6451,2.6463,2.6484,2.65,2.6532,2.6554,2.6583,2.6607,2.6641,2.6649,2.6645,2.663,2.6613,2.662,2.6718,2.6649,2.665,2.6651,2.6651,2.6652,2.6176,2.6179,2.6219,2.6241,2.6268,2.6293,2.6301,2.6337,2.6355,2.6386,2.6416,2.6434,2.6469,2.6513,2.6534,2.6548,2.6566,2.6561,2.6559,2.6557,2.655,2.6613,2.6554,2.6554,2.6554,2.6554,2.6555,0,2.6097,2.6127,2.6147,2.6185,2.6202,2.6237,2.627,2.6281,2.6296,2.6328,2.6348,2.6372,2.6393,2.6436,2.6461,2.6463,2.648,2.6468,2.6467,2.6472,2.6533,2.6533,2.6454,2.6454,2.6454,2.6454,2.6454,2.6454,2.6058,2.6066,2.6095,2.6116,2.6145,2.6164,2.6179,2.6203,2.6228,2.6253,2.6272,2.63,2.6336,2.6364,2.6385,2.6397,2.6403,2.6386,2.6402,2.6458,2.6468,2.6477,2.6477,2.6387,2.6387,2.634,2.634,2.6339]}]]